Погода в Бутове

Россия / Белгородская область     50°45′49″N   36°10′49″E
темп.,
°C
ветер,
м/с
пор.,
м/с
влажн.,
%
обл.,
%
осадки,
мм/ч
давл.,
гПа
погр.,
м
18 апреля, вс
вс1800:00+5ююз369187 0.1 1019278
03:00+4юз369326 0.2 1018200
06:00+3зюз2295100 0.1 101832
09:00+7юз3473100 0.3 1018409
12:00+8ююз2474100 0.5 10181013
15:00+7зюз2583100 2.3 1018725
18:00+7з2283100 0.6 1018405
21:00+6юв2292100 1.7 1018182
19 апреля, пн
пн1900:00+6ю229195 1.3 1018184
03:00+6зсз2390100 1.4 1017157
06:00+5сз239097 0.1 1017116
09:00+7ссз238499 0.1 1017298
12:00+9ссз2271100 0.2 1017781
15:00+9с2172100 0.3 1017717
18:00+9ссв217198 0.1 1016512
21:00+8св1278100 0.1 101627
20 апреля, вт
вт2000:00+8всв2274100 0.0 101526
03:00+6всв337626 0.0 101433
06:00+5св358220 0.0 101284
09:00+10в6976100 0.0 1010439
12:00+12всв81169100 0.1 10071041
15:00+9св91387100 2.7 10031302
18:00+8св81493100 8.4 9981131
21:00+7св5795100 11.6 996370
21 апреля, ср
ср2100:00+7ссз4595100 1.5 996302
03:00+4сз81395100 4.6 1000694
06:00+5зсз71389100 0.1 10041106
09:00+7з7118297 0.2 1009994
12:00+9з696995 0.3 10111333
15:00+10зюз686280 0.6 10131492
18:00+8зюз4874100 0.1 1015602
21:00+7юз3778100 0.2 1017256
22 апреля, чт
чт2200:00+6юз3682100 0.1 1018144
03:00+5юз358429 0.1 101973
06:00+4ююз368359 0.0 1020118
09:00+9ю586484 0.0 1020488
12:00+13ююз6759100 0.2 10201406
15:00+14ююз5755100 1.4 10191557
18:00+13ю5866100 0.9 1019572
21:00+9ююв388225 0.9 1019151